Theta_e
343 340 343 336 335 335 331 331 331 332 332 335 341 343 343 342 338 333 333 332 335 337 338 339 340 338 337 338 339 340 342 338 329 330 329 329 335 338 335 333 336 341 331
342 341 342 335 334 333 331 330 333 332 332 332 333 335 338 334 332 333 334 332 341 338 338 339 340 341 337 339 333 341 340 335 326 330 329 331 335 332 331 328 326 324 321
341 342 335 332 332 332 331 330 333 336 332 331 332 331 331 331 332 337 343 343 335 339 338 333 340 342 341 338 327 336 332 328 328 327 327 338 334 325 335 332 331 331 338
339 343 337 333 331 331 331 330 331 334 335 330 330 334 339 340 341 342 340 341 340 340 327 331 339 332 328 325 334 339 334 325 330 336 342 337 337 327 330 340 341 335 326
339 339 339 338 336 331 330 330 330 332 334 331 329 338 342 338 341 339 341 341 338 341 330 324 328 335 327 341 340 331 327 329 331 333 335 340 338 336 339 330 329 337 333
341 342 340 338 338 337 334 332 332 333 334 331 329 331 333 332 333 340 339 337 337 341 337 327 342 331 328 327 325 328 332 330 324 329 330 330 329 329 321 334 337 331 329
340 341 342 342 337 338 337 335 334 334 334 333 330 342 332 341 337 340 337 340 341 338 327 334 342 328 334 331 332 336 336 332 331 331 327 327 328 323 319 332 330 325 332
339 340 344 343 340 337 338 337 335 335 335 336 337 334 333 335 332 333 340 334 340 340 325 332 336 340 340 335 340 340 338 338 337 334 333 331 330 329 326 323 330 329 329
339 340 341 343 337 336 337 336 336 336 336 338 340 344 343 341 342 334 331 333 336 338 326 335 340 340 340 339 340 340 338 337 338 337 332 328 327 330 332 333 334 330 327
338 337 336 338 342 338 336 335 336 336 336 337 339 339 344 346 344 341 342 334 338 340 325 330 337 340 338 339 340 340 339 338 340 340 340 336 327 324 336 336 329 328 326
337 336 334 333 334 339 335 335 336 336 336 337 342 338 342 344 342 340 341 341 337 338 327 325 331 333 337 339 339 340 342 341 340 340 341 343 340 333 327 324 327 325 324
336 335 334 332 332 332 333 334 335 337 338 337 342 336 337 337 337 337 339 339 341 336 337 328 334 331 334 343 339 339 344 341 340 340 340 343 343 341 339 329 324 325 326
340 337 337 334 333 333 333 333 335 338 344 345 337 337 337 337 337 337 337 339 339 341 341 337 338 340 341 341 336 341 342 342 343 341 340 344 345 343 342 338 329 325 326
341 341 341 337 334 333 333 334 333 334 336 342 338 337 335 336 335 337 338 337 339 340 341 342 342 342 330 327 328 337 341 342 342 343 342 343 345 342 342 341 336 330 328
345 344 343 342 337 335 335 335 335 335 335 336 337 337 335 335 336 338 338 338 341 341 340 340 339 334 331 328 330 336 338 340 338 342 344 343 343 342 342 342 341 337 333
346 347 345 345 343 339 336 335 336 336 336 336 337 336 338 340 337 338 339 340 343 341 341 340 338 338 335 335 329 331 333 336 336 339 343 343 343 343 343 343 343 341 339
345 347 348 347 346 345 339 336 336 336 336 338 336 336 336 342 343 337 338 339 340 341 342 342 339 337 337 337 334 331 333 337 339 339 340 343 344 344 344 344 344 343 342
344 346 348 347 347 347 343 336 335 336 343 344 340 336 340 342 342 340 339 337 340 341 341 341 342 337 338 339 338 334 333 337 343 342 339 341 343 343 345 345 344 344 344
344 345 346 347 346 347 346 339 337 340 345 345 345 346 341 343 341 342 344 341 338 338 339 339 340 342 341 342 341 341 335 339 342 342 343 343 343 343 344 342 342 343 343
342 344 346 346 345 347 347 345 341 340 344 341 340 344 344 343 343 344 343 343 341 341 341 340 339 340 342 341 342 342 340 339 341 342 343 343 342 343 342 342 344 344 344
340 343 344 344 345 346 348 347 346 345 346 346 346 341 345 346 346 343 344 344 343 343 343 342 342 341 340 342 340 343 344 343 343 342 343 343 343 342 344 343 343 342 342
339 339 342 345 345 346 346 348 348 348 348 347 346 347 347 346 345 345 341 343 344 344 344 345 345 344 341 341 343 344 343 344 345 343 341 341 341 341 342 341 342 342 342
338 340 341 345 347 347 347 348 348 348 348 349 346 346 346 345 342 341 343 344 345 345 345 345 343 344 344 340 341 343 343 341 344 343 341 341 341 342 342 342 341 340 341
339 340 343 344 346 347 348 348 348 348 348 346 346 347 347 347 346 346 342 344 344 344 344 342 342 343 343 342 341 342 342 342 344 344 341 341 341 341 341 340 340 340 342
343 343 343 345 347 348 348 348 348 349 349 350 344 347 347 346 347 348 343 344 343 344 343 342 341 342 343 343 341 344 342 342 342 343 343 343 339 338 337 339 338 339 340
344 343 343 345 347 348 348 348 348 349 350 349 345 344 343 343 343 344 344 345 345 346 344 342 341 341 342 342 341 341 341 342 344 344 344 344 342 338 338 340 339 341 342
Wind_Speed
21 18 19 18 18 18 16 16 14 13 14 15 16 15 14 11 12 12 13 12 12 10 9 10 12 13 15 12 11 12 15 13 12 13 13 13 13 14 13 12 13 12 12
23 20 19 19 19 19 17 15 15 14 13 13 13 14 13 13 12 12 12 12 11 10 10 13 12 14 14 11 12 14 14 12 13 14 14 13 14 12 12 12 13 11 12
24 22 20 20 19 19 17 15 14 13 12 13 13 13 13 12 12 12 12 11 12 12 10 13 13 13 13 10 12 14 14 14 13 13 14 11 10 12 13 13 12 13 11
25 23 20 19 18 18 17 15 12 10 10 11 11 12 13 12 12 12 12 13 11 11 9 11 12 12 12 13 15 15 16 15 14 14 12 10 9 12 12 13 11 11 10
25 24 22 20 18 18 17 16 13 11 9 9 11 12 11 11 11 11 11 11 9 10 8 10 13 13 14 17 16 15 17 15 14 14 12 10 9 11 11 11 11 10 10
24 23 22 19 17 17 17 16 15 13 11 10 10 11 11 10 10 10 10 11 12 10 8 13 12 12 15 16 16 17 16 14 14 13 11 10 9 8 10 11 9 9 8
22 22 20 18 16 16 16 16 14 12 11 10 10 10 11 9 8 11 10 11 11 9 8 14 12 14 14 18 18 15 13 13 13 12 11 10 8 9 9 10 8 8 7
21 22 20 18 17 16 16 16 15 13 11 11 11 10 11 10 10 10 9 10 10 8 9 13 14 15 15 17 13 11 11 10 9 9 9 9 8 8 8 8 6 5 5
22 22 20 19 18 18 17 16 15 14 13 12 11 11 10 9 9 8 9 9 10 8 9 14 15 16 15 13 12 11 9 8 9 8 8 7 7 6 7 7 6 5 4
23 22 20 20 19 19 18 16 15 15 15 12 11 11 11 10 9 9 9 9 9 8 10 15 16 17 15 13 11 10 10 10 7 7 6 5 5 4 6 6 5 5 5
25 23 22 21 20 20 18 17 16 15 14 13 12 11 11 10 9 9 9 10 9 10 10 14 15 16 16 14 12 10 9 7 7 5 3 2 1 2 1 3 5 5 6
27 25 23 22 21 20 20 18 17 16 16 16 13 12 11 10 8 8 9 10 11 10 10 13 13 15 16 12 13 13 9 9 7 5 4 2 4 4 2 4 4 6 6
25 25 24 23 21 21 20 20 18 17 16 15 14 12 11 11 10 11 11 11 12 12 12 12 13 12 14 14 15 14 13 11 9 6 6 5 7 8 6 5 5 6 7
29 25 23 23 22 21 20 20 19 18 17 16 15 14 12 10 9 11 13 13 13 12 13 14 13 14 16 17 18 16 15 14 12 11 11 9 7 10 8 7 6 7 8
28 26 24 21 21 22 21 21 21 19 19 17 17 17 14 10 6 8 12 16 13 13 12 13 14 15 17 18 19 20 18 18 16 16 13 10 8 9 8 6 7 7 9
29 27 25 22 20 21 22 23 22 21 19 18 18 18 16 12 8 6 9 14 14 13 12 12 13 15 16 17 20 20 20 20 18 19 16 13 11 9 9 8 8 7 8
30 27 26 23 20 20 20 23 21 20 19 18 18 19 18 14 12 8 8 13 15 15 14 14 15 17 18 20 21 22 21 19 18 18 19 15 13 12 10 10 10 10 10
31 30 27 25 23 20 20 22 22 21 19 18 16 18 19 15 15 14 13 11 12 14 15 16 15 16 19 20 21 22 22 21 17 17 19 20 17 15 15 14 12 14 14
33 31 29 27 25 23 19 20 24 23 20 18 16 16 18 15 16 16 16 16 15 16 17 17 19 19 20 20 19 19 20 22 20 20 20 21 20 18 15 15 15 15 16
32 31 30 28 26 25 22 21 22 26 24 20 16 17 16 17 18 19 17 18 19 19 20 20 20 21 23 23 21 19 19 21 22 21 21 21 21 19 19 18 18 19 18
33 33 33 32 30 29 29 27 26 26 25 25 25 20 17 19 19 19 20 19 20 22 21 21 22 22 24 23 19 18 18 21 21 22 20 22 22 21 19 21 21 21 21
37 35 35 33 31 30 30 28 27 25 23 21 20 22 20 18 20 21 20 20 20 21 21 23 24 25 26 26 21 16 14 16 20 21 23 24 24 24 23 23 24 25 25
41 38 37 37 35 30 29 30 31 27 23 21 21 21 20 21 19 20 18 21 21 21 22 22 24 26 25 29 28 17 10 14 10 18 24 24 24 24 25 25 26 26 25
45 37 36 38 37 33 30 31 30 28 25 21 17 16 17 20 22 21 19 18 20 19 20 22 23 26 29 29 30 28 23 9 6 6 13 19 21 21 20 19 20 19 18
47 38 44 38 38 36 34 32 29 29 25 17 14 15 18 20 22 20 20 19 18 16 17 19 20 23 28 30 28 19 24 22 18 8 8 7 13 16 17 19 19 19 17
44 47 49 44 40 36 34 34 32 27 22 18 17 19 18 14 14 19 19 20 17 17 15 15 17 20 23 26 25 24 23 20 20 18 17 16 16 21 21 19 19 16 14
Wind_Direction
175 169 166 170 162 159 154 148 145 143 144 145 152 155 155 150 143 142 142 145 139 132 137 136 144 149 149 152 145 138 144 134 127 133 131 133 129 128 130 130 121 125 126
166 165 167 170 168 166 159 150 145 145 143 145 153 156 160 158 151 142 143 143 136 128 136 137 132 145 149 150 143 136 134 129 129 131 130 133 135 131 128 130 130 130 126
166 164 167 171 171 170 166 160 156 147 144 148 152 154 156 151 150 150 145 145 140 138 141 147 143 142 155 158 151 145 134 128 131 130 130 123 128 132 128 127 121 125 122
167 164 167 170 170 171 170 168 163 154 145 147 151 153 154 151 149 153 154 154 150 148 148 146 142 157 153 143 137 138 133 128 125 127 126 120 129 130 135 133 132 127 130
170 169 170 170 171 171 174 173 170 164 157 153 152 154 161 158 157 154 157 160 153 150 144 145 148 141 139 138 150 149 133 127 125 126 130 129 131 143 144 145 144 145 130
171 173 173 172 171 173 176 176 172 169 165 158 152 153 158 154 155 157 161 162 154 151 150 143 145 149 143 141 142 136 128 126 126 129 131 123 130 151 156 146 149 144 138
174 179 176 176 178 177 177 176 176 171 168 159 156 154 151 151 160 160 156 157 156 159 168 155 159 158 154 144 134 132 127 126 125 127 130 132 135 140 149 148 153 145 144
177 181 180 182 183 184 182 180 178 176 171 168 167 160 160 156 157 159 162 164 165 168 173 164 163 162 161 160 150 148 148 143 135 131 132 136 136 140 139 157 155 153 159
183 186 185 186 189 187 186 184 183 181 176 173 169 169 164 166 163 158 162 170 174 176 186 173 173 170 164 159 157 147 144 154 146 135 123 131 139 154 156 164 170 183 185
185 189 190 189 189 189 187 187 186 186 184 176 177 171 169 170 178 176 176 168 179 180 187 187 181 180 174 170 162 153 147 146 150 143 127 118 126 152 180 185 190 202 205
190 192 192 193 192 192 191 189 188 189 188 185 184 181 179 180 183 187 188 187 183 187 186 190 190 190 189 183 177 178 167 163 172 171 161 176 161 156 208 211 207 216 216
193 192 195 196 196 195 195 193 193 193 190 191 192 189 191 193 193 202 199 196 199 187 187 188 195 200 198 200 198 189 193 173 176 200 217 214 233 242 267 267 243 237 233
189 193 196 198 198 199 199 198 198 197 196 199 197 195 193 199 208 214 216 208 204 200 190 191 197 199 205 205 207 204 198 203 205 201 223 274 268 236 247 259 254 250 245
195 193 196 201 201 203 204 204 205 206 207 203 199 197 196 197 215 233 230 223 212 208 204 199 200 204 212 213 216 214 210 213 223 228 242 273 274 226 239 255 252 254 252
199 198 199 200 200 205 204 207 206 206 209 209 205 201 197 197 220 244 237 221 214 212 210 211 210 212 213 212 215 219 220 222 230 233 238 254 252 234 236 253 251 250 254
202 201 203 200 201 205 207 211 211 209 213 213 214 208 206 210 220 251 226 213 217 219 220 219 217 218 220 223 222 222 225 229 234 232 238 245 250 250 245 255 263 256 258
204 203 205 202 203 208 208 212 213 212 212 215 222 220 216 218 229 237 229 223 227 222 222 226 224 222 223 226 229 228 227 227 231 236 238 242 251 252 250 258 264 267 266
205 205 206 204 203 207 210 205 210 207 210 213 219 220 214 221 235 236 236 230 221 227 228 233 229 230 227 229 229 230 229 224 231 237 239 240 249 250 252 253 264 270 271
210 207 208 207 207 206 207 203 204 205 212 219 224 220 219 229 231 235 239 235 234 231 231 234 239 237 232 233 233 232 228 226 235 243 245 244 245 247 254 260 262 270 268
215 213 211 213 209 211 210 205 203 208 212 214 217 216 218 227 233 236 238 238 237 239 242 238 238 238 238 236 238 237 232 235 243 244 244 244 243 249 253 260 267 272 271
218 215 213 210 211 212 213 210 208 210 217 224 231 233 231 236 236 239 239 238 240 244 245 247 247 241 235 233 234 239 240 241 241 238 244 243 247 257 258 264 269 273 271
216 214 216 211 210 213 217 217 218 216 222 227 233 238 244 247 247 247 245 239 239 245 246 245 244 245 238 232 224 225 240 247 242 241 244 247 251 258 262 267 272 273 274
217 213 215 215 214 212 218 221 224 226 230 230 230 234 241 243 246 246 248 243 238 242 249 248 249 245 235 228 224 219 218 234 234 244 248 251 254 260 267 269 275 275 274
219 214 215 220 219 216 220 224 225 227 227 229 236 246 252 258 247 245 242 240 238 247 250 253 253 242 231 223 222 226 227 227 225 242 246 246 251 256 266 271 275 278 277
215 208 219 221 221 220 220 225 227 230 235 238 241 246 251 258 256 245 238 235 235 246 256 255 251 235 225 219 220 223 230 233 236 235 251 256 259 267 279 278 277 279 273
219 215 219 217 222 221 223 224 228 229 234 237 250 249 243 241 259 248 235 231 235 246 259 265 252 231 219 215 218 225 233 230 235 240 255 263 267 278 282 278 277 271 262